This is the latest recevied weather packets stored in our database for station/object K0QJ. If no packets are shown the sender has not sent any weather packets the latest 10 day(s).
| Time | Temp. | Humidity | Pressure | Rain* | Wind** | Luminosity | Snow |
|---|---|---|---|---|---|---|---|
| 1777591167 | 17.78° C | 50% | 1014.2 hPa | 0 mm | - | 66 W/m² | - |
| 1777590861 | 17.78° C | 48% | 1014.5 hPa | 0 mm | - | 70 W/m² | - |
| 1777590558 | 17.78° C | 48% | 1014.2 hPa | 0 mm | - | 81 W/m² | - |
| 1777590254 | 17.78° C | 48% | 1014 hPa | 0 mm | - | 100 W/m² | - |
| 1777589952 | 17.78° C | 47% | 1014 hPa | 0 mm | - | 95 W/m² | - |
| 1777589648 | 18.33° C | 47% | 1014.2 hPa | 0 mm | - | 92 W/m² | - |
| 1777589345 | 18.33° C | 47% | 1013.9 hPa | 0 mm | - | 86 W/m² | - |
| 1777589042 | 18.89° C | 48% | 1013.9 hPa | 0 mm | - | 93 W/m² | - |
| 1777588738 | 18.33° C | 48% | 1013.8 hPa | 0 mm | - | 138 W/m² | - |
| 1777588434 | 18.33° C | 48% | 1013.9 hPa | 0 mm | - | 110 W/m² | - |
| 1777588129 | 18.89° C | 48% | 1013.9 hPa | 0 mm | - | 73 W/m² | - |
| 1777587826 | 18.89° C | 51% | 1013.8 hPa | 0 mm | - | 94 W/m² | - |
| 1777587525 | 19.44° C | 52% | 1014 hPa | 0 mm | - | 127 W/m² | - |
| 1777587221 | 18.89° C | 53% | 1013.8 hPa | 0 mm | - | 155 W/m² | - |
| 1777586917 | 18.33° C | 53% | 1014 hPa | 0 mm | - | 184 W/m² | - |
| 1777586613 | 18.33° C | 52% | 1014.2 hPa | 0 mm | - | 157 W/m² | - |
| 1777586309 | 18.33° C | 53% | 1014.1 hPa | 0 mm | - | 142 W/m² | - |
| 1777586007 | 18.33° C | 52% | 1014.2 hPa | 0 mm | - | 135 W/m² | - |
| 1777585701 | 18.33° C | 53% | 1014 hPa | 0 mm | - | 147 W/m² | - |
| 1777585396 | 18.89° C | 53% | 1014.1 hPa | 0 mm | - | 141 W/m² | - |
| 1777585091 | 18.33° C | 53% | 1014 hPa | 0 mm | - | 131 W/m² | - |
| 1777584788 | 18.89° C | 51% | 1014.2 hPa | 0 mm | - | 147 W/m² | - |
| 1777584486 | 18.89° C | 50% | 1014.2 hPa | 0 mm | - | 117 W/m² | - |
| 1777584182 | 19.44° C | 50% | 1014.1 hPa | 0 mm | - | 133 W/m² | - |
| 1777583881 | 18.89° C | 51% | 1014.3 hPa | 0 mm | - | 146 W/m² | - |
* Rain latest hour (hover to see other rain measurements)
** Current wind speed in m/s (hover to see current wind gust speed)